GEFSGL_con_prob3kmehi_288.txt.gz
EHI
56 53 46 41 41 41 40 39 39 39 40 39 38 34 28 25 24 22 20 18 15 12 12 14 14 13 14 15 16 17 19 19 17 16 16 18 21 20 16 15 14 13 14
55 52 46 43 42 42 40 40 41 42 41 39 37 31 25 22 22 22 19 16 13 11 11 12 13 12 14 16 16 16 16 17 17 16 17 18 20 20 17 15 14 13 13
52 51 48 45 43 43 41 42 44 43 38 36 34 28 22 19 20 21 18 15 13 11 9 9 11 13 15 17 17 16 15 14 15 16 16 17 19 19 17 15 14 13 12
50 49 47 46 46 45 44 44 45 43 38 35 33 27 21 18 19 19 19 18 17 14 9 7 9 13 15 17 18 16 14 13 13 14 14 15 18 19 18 15 13 11 10
48 46 44 45 47 47 44 43 45 45 40 36 32 27 22 17 16 16 17 19 20 17 12 9 8 11 13 14 14 13 11 11 12 12 12 15 18 20 19 15 11 9 8
44 43 43 45 48 47 45 45 46 45 41 35 31 28 24 18 11 9 12 16 18 18 16 12 9 9 10 10 10 8 7 8 10 12 13 16 19 20 20 17 13 11 10
42 43 45 47 49 49 47 49 49 45 41 37 33 30 27 19 9 5 7 11 13 15 15 13 10 9 10 11 10 9 8 8 9 11 14 16 17 19 19 18 15 13 13
44 44 45 48 50 50 50 51 51 48 45 42 37 32 27 20 10 3 4 7 9 11 11 10 9 9 9 10 12 13 13 12 10 10 12 13 13 13 15 16 15 14 13
45 45 45 47 49 50 50 50 51 50 48 45 39 32 26 20 11 4 3 5 8 8 7 6 7 7 7 8 11 14 15 15 13 10 9 10 9 7 9 13 14 13 12
45 45 45 46 48 49 49 49 50 49 49 46 39 31 26 21 12 5 4 6 9 8 6 5 5 5 5 6 9 12 14 16 15 13 11 10 9 8 8 13 16 14 13
46 44 44 44 45 46 47 48 49 49 48 46 39 32 26 20 13 7 4 5 9 11 8 6 5 4 3 4 7 10 12 13 14 14 12 11 12 12 13 15 16 16 15
45 44 43 41 40 43 46 46 45 46 45 42 37 31 25 20 14 8 5 3 7 11 11 7 5 4 3 2 4 6 8 8 9 10 10 10 11 13 13 14 13 14 14
44 45 44 40 38 40 42 42 40 39 38 35 32 28 25 22 17 12 6 2 4 7 8 6 4 3 2 2 2 2 3 4 6 8 9 10 11 11 12 12 11 12 12
44 47 46 41 38 39 40 38 36 36 34 32 30 28 25 24 21 16 11 8 6 5 5 5 4 4 4 4 4 4 4 5 6 8 10 10 10 11 12 11 11 11 10
41 44 43 39 37 38 36 30 27 27 27 26 25 24 21 20 18 15 14 12 9 7 8 9 10 11 10 9 7 7 7 6 6 8 9 9 9 10 10 10 10 9 8
36 36 35 34 35 35 31 24 18 14 12 11 12 13 12 10 8 7 8 7 6 6 10 13 14 14 12 10 8 7 6 6 5 6 7 8 8 8 9 10 9 8 6
31 27 26 28 31 31 28 23 18 12 7 4 3 3 3 2 1 1 1 2 2 4 7 9 9 9 8 7 7 6 6 6 6 6 7 9 8 8 9 9 8 7 6
25 22 21 22 25 26 25 24 22 20 16 9 3 0 0 0 0 0 1 2 3 4 4 4 4 4 4 4 5 5 5 6 6 6 7 8 8 9 9 8 6 5 4
22 22 21 20 20 22 21 21 22 23 20 15 8 3 0 0 0 0 1 3 4 3 2 3 3 3 3 4 4 4 4 5 5 5 6 6 7 8 7 5 4 3 3
20 22 23 21 19 20 20 21 23 23 19 16 12 7 3 3 4 4 4 5 4 3 3 4 4 3 3 4 4 3 2 3 4 6 6 5 4 4 4 3 3 3 3
17 19 22 23 22 22 22 23 24 22 19 16 14 9 5 5 8 9 8 7 6 4 5 6 5 4 4 3 3 1 1 2 4 5 5 4 2 2 2 2 3 3 3
16 18 21 23 24 24 25 26 25 22 19 15 12 7 4 6 9 11 10 8 6 5 5 5 5 5 4 3 3 2 2 2 3 4 4 3 2 2 2 2 2 3 3
19 20 22 22 23 23 25 27 25 22 17 12 9 6 5 7 10 11 10 8 6 4 2 3 4 3 3 4 4 4 4 2 2 3 3 2 1 1 2 2 1 2 3
20 21 21 21 22 23 25 25 24 19 14 10 9 8 8 10 11 11 11 9 6 4 2 2 2 2 3 5 5 4 2 1 1 1 1 1 0 1 2 2 1 1 2
19 20 20 21 22 23 23 23 21 17 13 10 10 11 11 11 11 10 9 9 8 5 4 4 4 4 5 5 4 2 1 0 0 0 0 0 0 0 1 1 0 1 2
16 17 20 21 22 23 23 22 20 16 13 11 12 13 13 11 9 8 7 7 8 6 5 5 5 6 6 4 2 1 0 0 0 0 0 0 0 0 0 0 0 1 2

GEFSGL_con_prob3kmehi_294.txt.gz
EHI
27 24 22 20 17 14 11 9 8 7 5 2 2 4 6 5 2 1 3 4 2 2 3 4 3 2 3 4 3 2 3 4 4 2 1 1 1 0 0 0 1 2 3
29 27 24 22 19 15 11 10 10 8 5 2 3 5 6 4 1 1 3 5 3 2 3 3 3 2 3 4 3 3 4 5 5 4 3 3 2 1 0 0 1 3 4
31 29 27 25 21 18 14 12 12 11 7 5 6 7 7 4 2 0 2 4 4 3 3 3 2 2 2 3 3 4 5 5 5 5 4 4 4 1 0 0 1 3 4
33 31 28 26 24 21 17 15 15 14 10 9 8 8 6 5 2 0 1 2 3 3 3 2 1 1 1 2 2 4 4 4 4 4 4 4 3 2 1 1 1 3 4
35 33 30 27 24 21 18 17 17 16 13 11 11 9 6 4 3 1 1 2 3 3 2 1 1 2 3 3 3 4 4 4 4 3 3 3 2 3 3 2 2 3 4
34 35 33 28 24 20 17 17 19 18 16 14 14 12 9 5 2 1 1 1 3 3 2 2 3 3 4 4 4 4 4 4 4 4 4 4 4 4 4 3 3 4 4
32 34 34 30 25 21 19 18 19 19 19 17 17 16 13 7 2 0 0 1 2 3 2 3 3 3 4 4 4 4 3 3 4 5 5 6 7 6 5 4 3 4 4
29 31 32 32 28 24 21 19 20 22 22 19 16 16 13 8 3 0 0 0 1 2 1 1 1 2 2 3 3 3 3 3 3 4 4 5 6 5 4 4 4 3 2
26 27 29 30 29 27 23 21 23 25 24 19 14 13 11 7 4 1 0 0 0 0 0 0 0 0 1 1 3 3 3 3 3 3 3 3 3 2 2 3 4 2 1
24 25 27 28 29 29 27 25 26 27 25 19 14 11 9 7 5 2 1 1 1 0 0 0 0 0 0 1 2 3 3 3 3 3 3 2 1 1 1 2 2 1 1
23 25 29 31 31 32 31 31 31 30 27 21 14 11 9 7 5 3 2 2 2 1 1 1 2 2 1 1 2 3 3 3 3 3 3 2 1 2 2 1 0 1 1
20 23 28 33 34 34 34 34 33 31 29 23 17 13 10 8 5 4 2 2 2 2 2 2 3 3 3 2 2 2 1 1 2 3 3 2 2 2 2 1 0 0 1
17 18 21 26 30 32 33 32 31 29 27 23 19 15 11 9 7 5 3 2 2 2 3 3 3 3 3 3 2 1 0 0 1 2 2 1 1 1 1 1 0 0 1
15 14 15 19 25 28 29 27 25 25 24 21 18 15 12 10 8 5 4 3 3 3 3 3 3 3 3 3 1 0 0 0 0 1 1 0 0 0 1 1 0 0 1
13 13 13 16 21 25 24 20 17 17 17 16 15 14 11 8 5 4 3 3 4 3 3 4 4 3 3 2 1 0 0 0 0 0 0 0 0 0 1 1 0 0 1
11 12 13 14 18 20 18 14 10 8 7 7 8 9 8 5 2 1 1 1 2 2 3 5 5 4 3 3 1 0 0 0 0 0 0 0 0 0 0 0 0 0 0
10 11 11 12 15 17 15 12 8 4 2 1 2 3 3 2 1 0 0 0 0 0 2 4 4 3 2 2 1 0 0 0 0 0 0 0 0 0 0 0 0 0 0
10 9 10 11 14 16 16 15 11 7 3 1 0 0 0 0 0 0 0 0 0 0 0 1 1 1 1 1 1 0 0 0 0 0 0 0 0 0 0 0 0 0 0
8 7 7 10 13 16 17 17 14 10 6 3 1 0 0 0 0 0 0 0 0 0 0 0 0 0 0 0 0 0 0 0 0 0 0 0 0 0 0 0 0 0 0
5 5 6 8 12 14 16 17 15 12 9 6 3 1 0 0 0 0 0 0 0 0 0 0 0 0 0 0 0 1 0 0 0 0 0 0 0 0 0 0 0 0 0
3 4 6 8 10 11 13 15 15 13 10 8 5 3 1 0 0 0 0 0 0 0 0 0 0 0 0 0 0 0 0 0 0 0 0 0 0 0 0 0 0 0 0
3 4 5 7 8 8 10 14 15 13 10 8 7 4 1 0 0 0 0 0 0 0 0 0 0 0 0 0 0 0 0 0 0 0 0 0 0 0 0 0 0 0 0
3 3 4 5 6 7 9 13 15 13 9 7 7 5 2 0 0 0 0 0 0 0 0 0 0 0 0 0 0 0 0 0 0 0 0 0 0 0 0 0 0 0 0
4 3 4 5 6 7 9 12 14 12 10 8 6 4 1 0 0 0 0 0 0 0 0 0 0 0 0 0 0 0 0 0 0 0 0 0 0 0 0 0 0 0 0
4 4 5 5 6 6 8 11 12 12 11 9 8 5 2 1 0 0 0 0 0 0 0 0 0 0 0 0 0 0 0 0 0 0 0 0 0 0 0 0 0 0 0
4 4 4 4 4 4 6 9 11 12 12 10 9 6 4 2 1 0 0 0 0 0 0 0 0 0 0 0 0 0 0 0 0 0 0 0 0 0 0 0 0 0 0

GEFSGL_con_prob3kmehi_300.txt.gz
EHI
13 11 10 9 7 5 4 3 4 4 4 4 4 4 3 1 0 0 1 1 1 2 3 3 2 1 0 0 0 1 2 3 4 3 2 2 2 1 0 0 0 1 1
14 13 11 9 7 5 4 3 4 5 6 6 6 5 4 2 1 1 1 1 1 2 2 2 2 1 0 0 0 0 1 3 4 4 3 3 3 2 1 0 0 1 1
14 14 12 10 8 6 4 4 5 6 6 7 7 6 6 5 5 4 2 1 1 1 1 1 1 2 1 0 0 0 1 3 5 5 5 5 4 3 2 1 2 2 1
12 12 12 12 11 8 5 4 4 4 6 7 8 7 7 7 8 6 4 2 1 1 0 0 1 2 1 0 0 0 1 4 5 6 5 4 3 3 4 4 4 3 1
11 12 13 14 15 13 9 6 5 4 5 6 6 6 6 7 7 6 4 3 1 0 0 0 0 1 1 0 0 0 2 4 5 4 4 3 3 4 5 6 6 3 2
12 12 13 15 17 17 13 10 8 6 5 5 5 5 6 6 6 4 3 2 1 0 0 0 0 1 1 0 0 0 1 3 3 3 3 3 3 4 5 6 6 5 4
13 13 14 16 18 19 17 14 12 10 9 8 7 6 6 6 5 4 2 1 1 0 0 0 0 0 1 1 1 0 1 1 2 3 3 3 3 4 5 6 7 7 7
13 14 16 17 19 20 18 16 14 12 12 12 10 7 7 6 4 2 1 0 0 0 0 0 0 0 1 2 2 1 1 2 2 2 2 2 2 3 4 5 6 7 7
15 15 16 17 18 19 18 16 15 15 15 13 10 9 8 5 2 1 0 0 0 0 0 1 1 1 0 1 1 2 2 2 2 1 1 1 1 1 2 3 4 5 5
14 15 15 15 15 16 16 17 17 18 16 13 10 10 9 5 1 0 0 0 0 0 0 1 2 1 0 0 1 2 2 2 2 2 1 1 1 1 2 3 4 5 5
10 12 15 16 16 15 16 18 19 20 18 14 11 11 10 7 3 1 1 0 0 0 1 2 3 2 1 0 1 2 2 2 3 3 3 2 2 3 3 3 3 3 3
8 11 15 17 17 17 18 19 20 21 19 15 13 12 10 7 4 2 1 0 0 0 1 2 2 2 1 0 0 1 1 1 3 3 3 3 3 3 3 2 1 1 1
9 10 13 15 16 16 17 19 19 20 19 16 13 10 8 6 4 2 1 0 0 0 1 1 1 1 1 0 0 1 1 2 3 3 3 3 3 2 2 1 0 0 0
9 9 11 13 13 13 14 18 19 18 18 16 14 10 8 7 5 3 2 1 0 0 0 0 0 0 1 1 1 2 2 2 3 3 3 3 2 1 0 0 0 0 0
6 7 9 11 12 13 14 17 16 14 14 14 14 12 10 9 7 5 3 2 0 0 0 0 0 0 1 2 2 2 2 1 1 2 2 2 1 0 0 0 0 0 0
6 7 8 10 12 13 15 16 13 11 9 8 9 10 9 8 6 3 1 1 0 0 1 1 1 1 1 1 1 1 1 0 0 1 1 1 0 0 0 0 0 0 0
7 8 9 10 11 12 15 14 12 10 7 5 4 3 3 3 2 1 0 0 0 0 1 2 3 2 2 1 0 0 0 0 0 0 0 0 0 0 0 0 0 0 0
7 7 9 11 11 12 13 12 12 11 10 7 4 1 0 0 0 0 0 0 0 0 1 2 3 3 3 1 0 0 0 0 0 0 0 0 0 0 0 0 0 0 0
6 7 8 9 11 12 12 11 11 11 10 9 6 3 1 0 0 0 0 0 1 0 0 1 1 2 2 1 0 0 0 0 0 0 0 0 0 0 0 0 0 0 0
6 6 7 7 8 10 12 11 10 10 10 9 7 5 2 0 0 0 0 0 0 0 0 0 0 1 1 0 0 0 0 0 0 0 0 0 0 0 0 0 0 0 0
6 6 6 6 7 8 9 10 10 10 10 9 8 5 2 1 1 1 0 0 0 0 0 0 0 0 0 0 0 0 0 0 0 0 0 0 0 0 0 0 0 0 0
4 4 5 6 6 6 6 7 8 9 9 9 8 6 2 0 1 1 1 1 1 1 0 0 0 0 0 0 0 0 0 0 0 0 0 0 0 0 0 0 0 0 0
3 3 4 4 4 4 4 5 6 7 8 9 9 6 3 1 1 1 2 2 3 2 1 1 0 0 0 0 0 0 0 0 0 0 0 0 0 0 0 0 0 0 0
3 3 3 3 3 3 3 3 4 5 6 8 8 6 4 3 2 2 2 3 3 2 2 2 1 0 0 0 0 0 0 0 0 0 0 0 0 0 0 0 0 0 0
3 3 4 3 3 3 3 3 3 3 3 4 5 5 4 3 1 1 1 1 1 1 2 2 1 0 0 0 0 0 0 0 0 0 0 0 0 0 0 0 0 0 0
3 4 4 4 3 3 3 3 3 2 1 1 2 4 4 2 1 0 0 0 0 0 1 1 0 0 0 0 0 0 0 0 0 0 0 0 0 0 0 0 0 0 0

GEFSGL_con_prob3kmehi_306.txt.gz
EHI
12 11 10 11 11 11 11 11 10 8 8 8 10 12 13 14 13 12 11 10 10 10 10 10 10 10 9 7 7 6 4 3 2 2 3 6 9 9 8 8 7 7 9
13 12 12 12 12 12 11 11 11 10 8 8 9 11 13 13 14 14 12 11 11 11 11 11 11 12 12 11 10 8 6 6 5 4 4 8 10 10 9 9 8 7 8
12 12 13 14 13 12 11 11 10 9 8 8 8 10 10 11 13 14 13 12 12 12 12 12 12 13 14 15 15 12 10 10 11 9 7 9 10 10 10 9 8 8 7
11 12 14 15 14 13 12 11 11 9 8 9 9 9 7 7 9 11 11 11 11 11 12 12 11 11 12 13 15 16 15 16 16 13 9 8 8 9 10 8 7 8 8
15 15 16 16 17 17 16 15 16 15 13 12 12 10 7 4 5 8 9 8 8 9 9 10 9 8 8 7 8 12 16 17 17 13 9 7 8 10 10 9 7 7 8
20 19 17 18 20 20 19 18 19 21 20 18 17 15 12 7 4 4 6 6 7 8 8 9 8 7 4 2 2 4 8 11 12 11 9 8 9 11 13 11 10 9 8
21 20 18 17 18 19 18 18 20 24 26 25 24 22 18 11 4 2 3 5 7 9 10 10 9 6 4 4 4 3 4 6 8 9 9 8 10 13 14 14 13 12 11
23 22 20 17 17 17 17 17 20 24 29 31 29 26 21 14 6 2 2 6 9 10 12 12 11 9 7 9 11 11 11 10 8 7 7 7 8 10 11 12 11 11 12
25 24 21 18 18 18 19 19 20 24 30 34 33 28 23 17 9 3 3 9 12 12 13 13 12 11 9 10 15 17 16 15 11 8 6 5 5 5 6 8 8 8 8
22 22 21 22 22 22 22 22 23 25 28 32 32 29 25 21 13 4 4 11 14 13 14 13 11 9 7 7 12 16 16 15 14 12 8 6 5 5 5 7 8 7 7
20 20 23 25 26 25 25 25 25 25 26 27 28 27 25 22 15 5 3 8 11 13 14 12 9 6 3 2 5 9 11 11 14 14 12 9 7 7 8 9 9 9 9
17 18 22 26 27 27 28 28 26 25 24 23 23 23 23 20 13 5 2 3 7 11 13 11 8 3 0 0 1 2 4 6 10 12 12 10 7 6 9 10 10 9 9
14 14 16 21 24 25 27 26 25 24 22 20 19 20 20 18 12 6 3 1 2 6 10 9 5 1 0 0 0 0 1 4 8 10 9 7 5 5 8 10 9 7 6
13 13 13 15 18 20 20 20 21 21 20 18 17 17 18 17 13 11 8 6 4 5 8 8 5 3 3 2 2 2 3 6 7 7 6 5 5 7 9 10 8 4 2
12 12 12 12 14 15 16 16 16 17 15 15 15 14 15 14 12 10 9 8 6 6 8 10 9 8 7 6 5 5 7 7 7 6 5 5 6 8 9 10 7 3 0
11 11 11 12 13 13 13 12 13 11 8 7 8 9 9 8 6 4 4 4 3 4 7 12 13 12 10 8 7 7 8 7 7 6 6 6 7 8 9 9 7 3 1
9 10 11 13 13 12 10 10 10 9 6 3 3 2 2 2 1 1 0 0 0 1 5 11 14 13 11 9 8 8 7 6 6 6 6 7 7 8 8 7 6 3 1
7 8 10 12 13 12 11 10 9 9 8 7 4 2 0 0 0 0 0 0 1 3 6 10 13 14 13 11 9 9 7 6 5 6 7 7 9 9 7 6 4 2 1
6 6 7 10 11 12 12 11 10 9 9 9 8 5 2 1 1 1 0 1 3 6 7 10 12 13 12 11 9 9 7 5 5 6 7 8 9 9 7 4 3 1 1
7 6 6 8 9 10 11 11 10 9 9 9 9 7 4 3 4 3 2 2 4 7 8 9 10 11 12 11 10 9 7 5 4 5 7 8 9 8 6 3 1 0 0
6 6 6 7 8 9 10 10 10 10 9 9 10 9 6 6 8 7 4 3 4 5 7 9 9 10 11 12 11 10 7 4 3 4 6 7 7 6 4 2 1 0 0
4 4 5 6 7 8 9 9 9 9 8 8 9 9 7 7 10 10 7 5 4 4 5 7 9 9 10 10 9 7 5 3 3 4 5 5 4 3 2 1 0 0 0
2 2 3 4 6 7 7 7 7 7 7 7 7 7 6 6 7 9 8 7 6 5 4 6 7 7 7 7 6 5 3 3 4 4 4 2 1 1 0 0 0 0 0
2 2 2 3 4 5 5 5 5 5 5 4 4 4 4 4 5 6 7 8 7 6 4 4 4 4 4 4 4 3 2 2 3 3 3 2 0 0 0 0 0 0 0
2 2 2 2 2 3 3 2 2 3 3 3 3 3 3 3 3 4 4 5 6 6 5 4 3 3 3 3 3 3 2 1 1 2 2 1 0 0 0 0 0 0 0
1 1 1 1 1 1 1 0 0 1 1 2 3 3 3 3 3 3 3 4 4 4 4 4 3 3 3 3 4 3 1 0 0 1 1 0 0 0 0 0 0 0 0

GEFSGL_con_prob3kmehi_312.txt.gz
EHI
22 22 21 23 26 27 26 25 26 30 33 33 29 23 19 19 19 17 14 12 13 14 14 12 12 13 14 16 15 13 14 16 16 17 17 19 22 22 22 20 16 12 11
26 24 23 25 26 26 25 27 31 34 35 33 29 25 22 20 19 17 14 12 12 14 14 14 14 14 16 18 16 13 12 12 13 14 17 19 20 21 22 20 16 11 9
28 26 25 27 29 28 28 31 35 37 36 33 30 27 24 21 19 17 14 11 10 12 13 13 13 13 15 17 17 15 13 11 11 12 14 16 17 18 20 19 15 11 9
32 30 30 33 36 35 34 35 36 37 36 34 31 29 25 21 18 16 13 11 10 10 11 11 10 10 12 14 14 14 13 13 14 13 12 12 14 16 19 18 13 11 11
37 37 38 40 42 41 40 39 39 36 34 34 33 30 26 20 15 13 13 12 10 10 11 10 9 9 9 10 11 11 11 13 15 14 12 12 13 14 16 16 14 13 14
39 39 40 42 42 42 42 42 42 37 33 33 34 32 27 20 12 9 10 12 11 10 11 11 10 8 8 8 9 8 8 9 12 14 13 13 13 13 14 15 15 16 16
39 38 40 41 41 40 39 41 42 40 36 35 35 34 29 21 12 6 6 9 11 12 13 14 12 10 8 8 8 8 7 7 9 11 13 13 13 13 14 16 16 17 17
39 39 41 42 42 40 37 37 39 40 39 39 38 37 34 25 14 7 4 8 13 17 18 18 16 13 10 9 9 10 10 9 9 9 11 11 11 11 13 16 17 16 15
40 39 39 39 39 39 38 37 36 37 39 41 40 40 37 28 17 7 4 8 15 19 20 19 17 15 13 11 12 14 14 13 12 10 9 8 6 7 10 13 14 14 12
39 38 35 34 35 36 37 38 37 36 38 40 40 38 36 30 19 7 4 9 15 17 17 16 14 13 12 12 14 16 16 15 14 13 12 9 7 7 7 8 10 12 12
36 36 34 31 31 33 37 41 40 38 37 38 38 36 34 30 20 8 4 8 13 14 14 12 11 9 7 7 10 12 12 12 14 15 14 14 14 13 11 8 8 11 14
34 34 32 30 28 29 36 41 42 41 38 37 36 33 32 28 20 10 4 4 7 10 10 9 7 4 2 2 3 5 5 7 10 12 13 14 16 16 15 13 11 12 14
34 33 30 28 26 26 31 35 38 38 35 33 32 29 28 26 20 11 4 1 2 4 6 5 2 1 0 0 0 0 1 3 7 9 10 11 12 14 16 16 14 13 15
33 30 26 24 23 24 25 26 27 29 28 26 26 26 26 26 21 13 7 3 2 3 3 3 3 3 2 2 2 2 3 4 6 8 10 10 10 11 14 16 14 14 15
30 26 22 20 21 22 21 19 18 18 18 18 19 22 23 22 17 10 6 5 4 4 4 6 7 7 6 6 5 6 8 8 7 8 10 9 8 8 10 12 12 14 16
26 23 19 17 19 20 18 16 14 11 9 9 11 12 13 11 8 4 2 2 3 3 5 9 10 9 8 8 8 8 10 10 9 9 9 9 7 6 7 8 10 13 15
22 19 17 16 16 15 14 13 13 10 8 7 5 4 3 3 1 0 0 0 0 1 5 9 10 9 9 8 8 7 7 8 10 10 10 9 8 6 6 8 10 11 11
16 14 14 15 14 12 11 11 11 12 12 11 6 1 0 0 0 0 0 0 0 1 4 7 9 9 9 8 8 7 6 6 8 11 11 11 9 8 8 9 10 9 8
10 10 10 11 11 10 10 8 9 12 14 12 8 3 0 0 0 0 1 1 1 1 2 4 6 7 8 8 8 8 8 8 9 10 11 11 10 9 9 9 9 7 6
6 6 7 7 8 8 8 7 8 10 10 10 8 5 2 0 0 0 1 2 2 1 2 3 3 5 6 7 8 9 10 10 10 10 10 10 9 8 7 7 6 5 4
4 4 5 6 7 7 7 7 8 8 7 6 6 5 3 2 2 2 2 2 3 3 2 2 2 3 4 6 8 10 11 11 11 10 9 7 6 6 5 4 4 3 2
3 3 4 6 8 8 8 8 8 8 5 4 4 3 3 4 5 5 4 3 3 3 2 1 1 1 2 4 8 11 11 11 11 11 9 7 5 5 4 3 3 2 1
2 2 3 5 7 7 7 7 7 7 5 3 3 2 3 4 6 6 5 3 3 3 2 1 1 1 1 4 7 9 10 10 10 10 10 8 6 5 4 3 2 1 0
2 1 1 2 4 5 5 5 5 5 4 2 1 1 2 4 5 4 3 3 2 2 2 2 2 2 1 3 5 6 6 7 7 7 8 7 6 5 4 4 3 1 1
1 0 0 1 3 3 3 3 2 1 1 1 0 0 2 4 4 3 3 3 2 2 1 1 2 2 1 2 3 3 3 2 3 4 4 5 4 4 4 5 5 3 3
0 0 1 2 3 3 3 1 0 0 0 0 0 1 3 4 3 3 3 3 3 2 2 1 1 1 1 1 2 2 1 0 1 2 3 3 3 3 4 4 5 5 4

GEFSGL_con_prob3kmehi_318.txt.gz
EHI
13 10 8 7 8 9 10 11 11 11 10 7 3 1 1 1 2 3 3 3 3 3 3 3 3 4 5 5 4 1 0 0 0 1 1 1 2 2 2 1 0 0 1
16 12 9 9 10 11 12 12 13 12 10 9 5 2 1 1 2 3 3 3 3 3 3 3 3 3 4 4 3 2 1 1 1 2 2 2 3 3 3 2 1 2 3
16 14 12 12 12 12 13 14 14 12 11 11 9 5 3 3 3 4 4 3 3 3 3 3 4 4 4 4 4 5 4 2 2 3 3 3 3 3 3 3 3 4 6
16 14 12 12 13 13 14 13 12 12 13 13 13 10 6 5 5 6 5 4 3 3 3 4 5 6 6 6 6 6 6 4 3 3 3 4 3 3 3 3 3 4 5
19 16 13 12 12 13 13 12 11 12 13 15 16 14 11 8 7 6 6 4 2 2 3 5 6 6 6 6 6 6 6 5 4 4 4 5 5 4 4 4 3 3 3
24 20 16 15 14 12 11 11 11 11 13 15 16 16 15 13 10 6 4 3 2 2 3 5 5 5 5 5 5 5 5 5 5 4 5 6 6 5 4 4 4 3 3
26 23 21 20 16 12 10 11 11 11 13 15 15 16 17 16 12 6 2 1 1 2 4 5 6 6 6 6 5 5 4 4 4 4 5 6 6 4 4 4 3 3 3
26 26 25 23 19 15 13 11 10 11 13 14 14 14 16 15 11 5 3 2 2 4 5 6 6 6 6 6 6 6 5 4 2 2 3 4 4 3 2 2 2 3 3
25 25 24 23 21 17 14 13 11 11 13 15 14 13 13 13 10 6 3 3 4 4 6 6 6 6 6 6 6 6 5 3 2 2 2 3 2 1 1 1 1 2 4
23 22 21 21 21 19 17 15 14 13 13 14 13 13 14 14 12 6 3 4 5 4 4 4 4 4 4 3 3 4 4 3 2 2 2 2 1 0 0 0 1 3 5
20 20 19 19 20 20 19 18 16 14 13 13 14 15 16 16 13 6 2 3 4 3 2 1 1 1 1 1 1 2 3 2 1 1 1 1 0 0 0 0 1 3 5
19 19 18 18 18 18 19 18 16 15 15 14 14 15 16 16 13 6 1 1 2 2 1 0 0 0 0 0 0 1 2 1 0 0 0 0 0 0 0 0 1 2 3
16 17 17 16 14 14 15 16 15 15 15 14 13 12 13 13 11 6 2 0 1 1 0 0 0 0 0 0 0 0 0 0 0 0 0 0 0 0 0 0 0 0 1
14 15 15 14 12 11 12 14 14 14 13 12 11 10 9 9 9 7 3 0 0 0 0 0 0 0 0 0 0 0 0 0 0 0 0 0 0 0 0 0 0 0 0
13 13 14 12 11 10 10 10 10 10 9 9 9 9 8 7 6 6 3 1 0 0 0 0 0 0 0 0 0 0 0 0 0 0 0 0 0 0 0 0 0 0 0
10 11 12 12 11 10 10 8 7 6 6 5 6 7 7 6 4 3 2 1 0 0 0 1 1 1 1 0 0 0 0 1 1 1 1 1 1 1 0 0 0 0 0
7 8 10 11 12 11 10 8 7 6 4 3 2 3 4 3 2 1 0 0 0 0 0 1 2 2 1 0 0 0 0 1 2 2 2 2 2 2 1 0 0 0 0
3 4 6 8 10 10 10 9 9 7 5 4 2 0 1 1 0 0 0 0 0 0 0 1 1 1 1 1 1 1 1 1 2 3 3 3 3 2 1 0 0 0 0
1 1 2 3 5 7 8 9 9 8 7 5 3 1 0 0 0 0 0 0 0 0 0 0 0 0 1 2 2 2 2 2 3 3 3 3 3 2 1 0 0 0 0
1 1 1 1 1 3 6 7 7 7 7 6 4 2 1 0 0 0 0 0 0 0 0 0 0 0 1 1 1 1 2 2 2 2 2 2 2 1 0 0 0 0 0
1 1 2 1 1 1 4 5 6 6 6 6 5 4 2 0 0 0 0 0 0 0 0 0 0 0 0 0 0 0 1 1 1 1 0 1 1 0 0 0 0 0 0
0 1 1 1 0 1 2 4 5 6 6 6 5 4 2 0 0 0 0 0 0 0 0 0 0 0 0 0 0 0 0 0 0 0 0 0 0 0 0 0 0 0 0
0 0 0 0 0 0 1 1 3 4 4 4 3 2 1 0 0 0 0 0 0 0 0 0 0 0 0 0 0 0 0 0 0 0 0 0 0 0 0 0 0 0 0
1 0 0 0 0 0 0 0 1 1 1 1 1 1 0 0 0 0 0 0 0 0 0 0 0 0 0 0 0 0 0 0 0 0 0 0 0 0 0 0 0 0 0
1 0 0 0 0 0 0 0 0 0 0 0 0 0 0 0 0 0 0 0 0 0 0 0 0 0 0 0 0 0 0 0 0 0 0 0 0 0 0 0 0 0 0
1 0 0 0 0 0 0 0 0 0 0 0 0 0 0 0 0 0 0 0 0 0 0 0 0 0 0 0 0 0 0 0 0 0 0 0 0 0 0 0 0 0 0